Tracking 25195 objects as of 20-Jan-2022
HD Live streaming from Space Station
objects crossing your sky now

EKRAN 18

Track EKRAN 18 now!
EKRAN 18 is classified as:


NORAD ID: 19090
Int'l Code: 1988-036A
Perigee: 37,222.0 km
Apogee: 37,347.4 km
Inclination: 15.3 °
Period: 1,512.9 minutes
Semi major axis: 43655 km
RCS: 6.0212 m2 (large)
Launch date: May 6, 1988
Source: Commonwealth of Independent States (former USSR) (CIS)
Launch site: TYURATAM MISSILE AND SPACE COMPLEX (TTMTR)
aabbcc
Your satellite tracking list
Your tracking list is empty




NASA's NSSDC Master Catalog

Two Line Element Set (TLE):
1 19090U 88036A   22019.62148344 -.00000115  00000-0  00000-0 0  9998
2 19090  15.3230 343.6649 0014361  57.0416 140.3170  0.95179118101692
Source of the keplerian elements: AFSPC